Regional Weather Roundup
Issued by NWS

Home | Current Version | Previous Version | Graphics & Text | Print | Product List | Glossary Off
Versions: 1 2 3 4 5 6 7 8 9 10 11 12 13 14 15 16 17 18 19 20 21 22 23 24 25 26 27 28 29 30 31 32 33 34 35 36 37 38 39 40 41 42 43 44 45 46 47 48 49 50

000
ASUS43 KMKX 271511
RWRWI

WISCONSIN REGIONAL WEATHER ROUNDUP
NATIONAL WEATHER SERVICE MILWAUKEE/SULLIVAN WI
1000 AM CDT SAT MAY 27 2017

NOTE: "FAIR" INDICATES FEW OR NO CLOUDS BELOW 12,000 FEET WITH NO
SIGNIFICANT WEATHER AND/OR OBSTRUCTIONS TO VISIBILITY.

WIZ001-002-006>008-014>016-023>028-271600-
NORTHWEST WISCONSIN

CITY           SKY/WX    TMP DP  RH WIND       PRES   REMARKS
SUPERIOR ARPT  NOT AVBL
ASHLAND        SUNNY     69  51  52 W8        29.84S
HAYWARD        CLOUDY    64  48  56 VRB5      29.88R
SIREN          SUNNY     65  48  53 CALM      29.88F
CUMBERLAND     SUNNY     63  43  48 NW5       29.89S
RICE LAKE      SUNNY     65  47  51 NW5       29.90R
CHETEK         SUNNY     65  51  58 N6        29.89S
LADYSMITH      SUNNY     65  53  64 NW5       29.90R
EAU CLAIRE     SUNNY     68  52  56 W7        29.88R
MENOMONIE      SUNNY     67  51  57 W3        29.90R
NEW RICHMOND   SUNNY     67  45  44 W5        29.90S
OSCEOLA        SUNNY     67  48  50 CALM      29.92S
$$

WIZ003>005-009-010-017-018-271600-
NORTH CENTRAL WISCONSIN

CITY           SKY/WX    TMP DP  RH WIND       PRES   REMARKS
MANITOWISH WTR SUNNY     65  56  74 S7        29.85R
ARBOR VITAE    SUNNY     65  56  71 SW5       29.85S
WOODRUFF       SUNNY     65  56  71 SW5       29.85S
RHINELANDER    PTSUNNY   65  57  75 W7        29.87R
EAGLE RIVER    MOSUNNY   65  53  63 SW6       29.86R
LAND O LAKES   SUNNY     67  52  58 SW3       29.87R
PHILLIPS       SUNNY     62  57  82 SW3       29.86R
TOMAHAWK       SUNNY     64  56  76 CALM      29.87S
MEDFORD        SUNNY     64  56  74 SW7       29.88R
MERRILL        MOSUNNY   62  58  84 CALM      29.88R
$$

WIZ029-030-035-036-043>047-271600-
CENTRAL WISCONSIN

CITY           SKY/WX    TMP DP  RH WIND       PRES   REMARKS
WAUSAU         SUNNY     67  56  67 S3        29.86R
MOSINEE        SUNNY     66  57  72 S3        29.89R
MARSHFIELD     SUNNY     65  56  72 SW5       29.87S
STEVENS POINT  SUNNY     66  57  71 W5        29.89R
WAUPACA        MOSUNNY   69  59  69 S5        29.88S
WAUTOMA        MOSUNNY   68  59  73 W6        29.89S
WISC RAPIDS    SUNNY     68  57  68 CALM      29.89R
CAMP DOUGLAS   SUNNY     69  58  67 SW3       29.88S
$$

WIZ011>013-019>022-031-037>040-048>050-271600-
NORTHEAST WISCONSIN

CITY           SKY/WX    TMP DP  RH WIND       PRES   REMARKS
ANTIGO         MOSUNNY   65  60  84 W7        29.88R
SHAWANO        MOSUNNY   70  58  67 SW3       29.87S
OCONTO         SUNNY     68  57  68 SE5       29.86S
STURGEON BAY   SUNNY     69  55  60 VRB3      29.88
GREEN BAY      SUNNY     67  59  75 VRB5      29.87F
MANITOWOC      SUNNY     64  54  69 SE8       29.90S
APPLETON       MOSUNNY   66  54  63 VRB6      29.87F
CLINTONVILLE   SUNNY     68  57  68 SW5       29.87S
OSHKOSH        SUNNY     67  55  65 VRB3      29.88F
$$

WIZ032>034-041-042-053>061-271600-
SOUTHWEST WISCONSIN

CITY           SKY/WX    TMP DP  RH WIND       PRES   REMARKS
LA CROSSE      SUNNY     68  61  78 CALM      29.88S
SPARTA         SUNNY     67  58  72 CALM      29.89S
VIROQUA        CLOUDY    61  59  94 S3        29.91S
BOSCOBEL       CLOUDY    64  58  80 SW6       29.91R
PRAIRIE DU CHI CLOUDY    61  58  90 CALM      29.92R
PLATTEVILLE    PTSUNNY   63  61  93 S6        29.93R
$$

WIZ056-057-062-063-064-067-068-271600-
SOUTH CENTRAL WISCONSIN

CITY           SKY/WX    TMP DP  RH WIND       PRES   REMARKS
REEDSBURG      CLOUDY    61  60  96 SW3       29.90S
BARABOO/DELLS  CLOUDY    61  57  86 W8        29.91R
LONE ROCK      CLOUDY    60  56  86 CALM      29.91S FOG
MINERAL POINT  CLOUDY    63  61  94 SW5       29.92S
MADISON        MOSUNNY   65  56  72 S7        29.91R
MIDDLETON      MOSUNNY   67  58  73 S3        29.91S
WATERTOWN      MOSUNNY   65  58  76 S3        29.90F
MONROE         PTSUNNY   63  57  82 CALM      29.92F
JANESVILLE     MOSUNNY   66  57  72 CALM      29.92R
$$

WIZ051-052-058>065-066-070>072-271600-
SOUTHEAST WISCONSIN

CITY           SKY/WX    TMP DP  RH WIND       PRES   REMARKS
MILWAUKEE      MOSUNNY   67  54  63 SE6       29.93R
WAUKESHA       NOT AVBL
MILWAUKEE/TIMM SUNNY     66  52  59 CALM      29.92S
RACINE         SUNNY     64  54  69 SE6       29.94R
KENOSHA        SUNNY     65  54  67 VRB5      29.93R
FOND DU LAC    SUNNY     67  53  61 S9        29.89F
SHEBOYGAN      SUNNY     67  56  67 SE5       29.90S
WEST BEND      SUNNY     66  55  68 SE7       29.91S
JUNEAU         SUNNY     64  55  74 S6        29.92S
$$

LSZ147-162-271600-
LAKE SUPERIOR

STATION/POSITION TIME  TEMP    WIND        PRES    WAVE
                       AIR SEA DIR/SP/G            HT/PER
                 (UTC) (F)     (DEG/KT/KT) (MB)    (FT/S)
W MID LAKE BUOY  1350   40 37  260/  6/  8 1010.0R   0
DEVILS ISLAND    1500   50     250/ 12/ 14 1010.8R
SAXON HARBOR     1430   59     320/  5/  7 1010.5R
$$

LMZ867-665-643>646-271600-
LAKE MICHIGAN

STATION/POSITION TIME  TEMP    WIND        PRES    WAVE
                       AIR SEA DIR/SP/G            HT/PER
                 (UTC) (F)     (DEG/KT/KT) (MB)    (FT/S)
CHAMBERS ISLAND  1440   63     180/  5/  9 1011.2S
N MID LAKE BUOY  1450   45 42  190/  8/ 10 1013.0S   0
NORTHPORT PIER   1430   59     160/  6/  9 1011.9R
ALGOMA LAKESHORE 1316             CALM       N/A
KEWAUNEE LAKESHO 1448   52     170/  8/  9 1011.8F
SHEBOYGAN LAKESH 1500   52     170/  7/  7 1012.5F
PORT WASHINGTON  1440   56     170/  3/  4 1013.9S
ATWATER BUOY     1409   49     160/  4/  4 1013.2S
MILWAUKEE LAKESH 1450   53     140/  3/  3   N/A
S MID LAKE BUOY  1350   49 47  330/  4/  4 1013.6F   0
KENOSHA   LAKESH 1500   56     160/  4/  5 1013.5
$$

TC  - TEMPERATURE IN CELSIUS
VSB - VISIBILITY IN STATUTE MILES
WCI - WIND CHILL INDEX
HX  - HEAT INDEX




USA.gov is the U.S. government's official web portal to all federal, state and local government web resources and services.